Humidity-temperature Sensor

Selected Measurement Type: Relative Humidity

 
Relative Humidity [%]     6 entries per hour
Showing data from 4/19/2015 (00:00:00 Z) to 4/12/2015 (00:01:00 Z)
Previous Next [ Day | 3-Days | 7-Days ]
First Last
Prev [ Day | 3-Days | 7-Days ] Next
First Last

Start Time:     :
End Time:     :     
Time (in GMT) :00 :50 :40 :30 :20 :10
Previous Next [ Day | 3-Days | 7-Days ]
First Last
Prev [ Day | 3-Days | 7-Days ] Next
First Last


123 => good data
MM => data is determined as missing
-- => data not received/configured
Back to Top Back to Top
4/19/2015 00:00 to 23:10 80.71 80.17 79.20 78.54 75.74 76.73
4/18/2015 23:00 to 22:10 77.74 81.98 83.41 85.35 83.08 82.31
4/18/2015 22:00 to 21:10 81.10 80.97 81.78 81.80 81.76 83.66
4/18/2015 21:00 to 20:10 85.78 86.38 86.71 86.17 87.47 87.22
4/18/2015 20:00 to 19:10 88.23 88.52 90.05 91.74 90.75 89.45
4/18/2015 19:00 to 18:10 88.81 88.30 87.99 88.54 88.25 88.15
4/18/2015 18:00 to 17:10 87.12 85.82 83.10 80.54 79.04 79.61
4/18/2015 17:00 to 16:10 79.80 80.81 81.82 83.02 81.78 81.78
4/18/2015 16:00 to 15:10 82.11 81.96 79.72 80.56 77.61 80.42
4/18/2015 15:00 to 14:10 80.75 80.64 82.15 81.08 81.63 82.73
4/18/2015 14:00 to 13:10 81.90 81.20 81.88 82.48 82.69 82.56
4/18/2015 13:00 to 12:10 82.87 82.69 83.22 82.40 81.53 81.72
4/18/2015 12:00 to 11:10 81.96 81.84 81.70 82.17 81.98 82.34
4/18/2015 11:00 to 10:10 82.05 80.89 79.47 80.21 82.11 81.28
4/18/2015 10:00 to 9:10 81.59 81.28 81.57 81.68 80.99 81.22
4/18/2015 09:00 to 8:10 81.14 80.33 80.13 80.64 80.09 80.25
4/18/2015 08:00 to 7:10 81.20 81.63 80.87 80.09 80.97 80.31
4/18/2015 07:00 to 6:10 80.46 80.95 80.89 80.64 80.29 80.25
4/18/2015 06:00 to 5:10 80.03 80.21 79.53 79.10 78.62 78.73
4/18/2015 05:00 to 4:10 78.60 79.14 80.25 80.69 80.95 81.98
4/18/2015 04:00 to 3:10 81.28 81.26 81.16 80.62 80.75 80.73
4/18/2015 03:00 to 2:10 80.81 80.42 80.38 79.84 78.99 79.39
4/18/2015 02:00 to 1:10 79.22 79.67 79.43 78.91 79.08 78.81
4/18/2015 01:00 to 0:10 77.78 77.06 76.83 76.44 75.22 75.10
4/18/2015 00:00 to 23:10 74.91 74.35 74.58 74.31 74.56 74.44
4/17/2015 23:00 to 22:10 75.57 75.90 76.21 77.08 77.26 76.15
4/17/2015 22:00 to 21:10 76.09 75.82 75.24 75.01 75.86 76.75
4/17/2015 21:00 to 20:10 77.47 78.11 78.81 78.35 78.33 78.09
4/17/2015 20:00 to 19:10 77.14 76.70 78.07 77.47 77.63 77.43
4/17/2015 19:00 to 18:10 79.06 79.55 79.63 78.95 79.76 78.89
4/17/2015 18:00 to 17:10 77.22 76.52 75.78 76.70 77.88 77.84
4/17/2015 17:00 to 16:10 79.24 79.24 79.06 80.33 81.39 81.32
4/17/2015 16:00 to 15:10 80.52 80.25 80.17 79.34 78.91 77.78
4/17/2015 15:00 to 14:10 76.56 75.51 74.44 73.73 72.74 74.13
4/17/2015 14:00 to 13:10 74.91 78.73 82.79 87.24 89.27 90.56
4/17/2015 13:00 to 12:10 89.86 88.79 87.88 85.78 83.80 79.18
4/17/2015 12:00 to 11:10 79.16 80.87 83.02 85.59 87.64 88.38
4/17/2015 11:00 to 10:10 87.70 87.37 88.09 87.59 87.47 87.10
4/17/2015 10:00 to 9:10 86.36 85.02 83.86 85.37 86.13 83.84
4/17/2015 09:00 to 8:10 81.65 81.96 82.21 82.25 80.48 79.78
4/17/2015 08:00 to 7:10 80.00 79.41 80.66 80.15 81.53 80.11
4/17/2015 07:00 to 6:10 79.90 80.60 80.38 79.39 78.62 78.17
4/17/2015 06:00 to 5:10 78.48 78.79 78.19 78.05 78.11 77.53
4/17/2015 05:00 to 4:10 78.52 78.77 79.01 78.60 78.58 78.42
4/17/2015 04:00 to 3:10 78.46 78.19 78.81 78.00 77.59 77.30
4/17/2015 03:00 to 2:10 78.31 80.50 80.11 80.40 79.08 79.65
4/17/2015 02:00 to 1:10 79.28 78.35 79.01 79.26 78.89 78.97
4/17/2015 01:00 to 0:10 78.35 77.65 77.47 78.15 79.45 79.32
4/17/2015 00:00 to 23:10 78.35 77.41 77.96 78.31 77.67 78.54
4/16/2015 23:00 to 22:10 74.89 75.18 75.41 76.11 77.30 76.44
4/16/2015 22:00 to 21:10 75.30 75.08 75.34 74.54 75.65 75.49
4/16/2015 21:00 to 20:10 75.12 74.97 76.11 76.33 75.76 75.38
4/16/2015 20:00 to 19:10 75.08 74.68 73.69 73.26 75.98 76.07
4/16/2015 19:00 to 18:10 74.85 73.76 74.75 74.93 75.71 75.36
4/16/2015 18:00 to 17:10 73.07 76.62 76.79 74.48 74.70 75.84
4/16/2015 17:00 to 16:10 74.85 75.51 76.13 76.09 77.03 77.24
4/16/2015 16:00 to 15:10 77.06 75.76 75.78 74.81 74.72 75.47
4/16/2015 15:00 to 14:10 74.17 73.73 73.73 74.75 74.89 72.79
4/16/2015 14:00 to 13:10 75.22 74.52 75.16 75.69 77.39 77.49
4/16/2015 13:00 to 12:10 79.92 79.92 79.63 77.20 76.99 78.29
4/16/2015 12:00 to 11:10 78.48 77.22 75.96 76.46 77.28 77.84
4/16/2015 11:00 to 10:10 80.54 82.73 79.12 77.96 77.72 78.93
4/16/2015 10:00 to 9:10 81.22 81.49 80.91 80.75 79.39 78.95
4/16/2015 09:00 to 8:10 78.66 79.12 80.27 81.63 83.18 84.27
4/16/2015 08:00 to 7:10 84.32 84.07 83.45 83.30 82.40 82.05
4/16/2015 07:00 to 6:10 82.71 81.28 82.42 81.88 81.49 81.70
4/16/2015 06:00 to 5:10 80.97 81.47 81.57 83.78 84.52 85.53
4/16/2015 05:00 to 4:10 85.16 84.21 84.93 86.27 87.33 87.68
4/16/2015 04:00 to 3:10 88.28 88.30 87.88 87.82 86.75 85.10
4/16/2015 03:00 to 2:10 82.17 83.28 85.84 87.99 87.24 87.57
4/16/2015 02:00 to 1:10 88.05 87.20 84.23 85.28 85.00 85.72
4/16/2015 01:00 to 0:10 85.39 85.37 84.87 84.98 84.85 83.63
4/16/2015 00:00 to 23:10 83.72 80.44 80.81 80.07 78.87 79.84
4/15/2015 23:00 to 22:10 79.67 76.70 76.62 76.79 77.26 76.13
4/15/2015 22:00 to 21:10 76.04 76.17 75.08 74.21 74.33 74.72
4/15/2015 21:00 to 20:10 73.96 76.79 76.85 77.03 76.68 75.76
4/15/2015 20:00 to 19:10 76.89 77.22 78.38 78.79 78.64 77.94
4/15/2015 19:00 to 18:10 77.59 77.18 76.31 76.75 76.23 75.82
4/15/2015 18:00 to 17:10 76.37 76.73 76.40 77.61 78.27 78.75
4/15/2015 17:00 to 16:10 78.17 77.43 76.54 76.50 76.64 76.33
4/15/2015 16:00 to 15:10 76.60 76.37 77.12 76.40 75.86 75.98
4/15/2015 15:00 to 14:10 75.74 76.11 75.38 75.96 75.74 76.89
4/15/2015 14:00 to 13:10 75.86 75.76 77.01 75.98 75.24 75.82
4/15/2015 13:00 to 12:10 77.18 76.35 78.99 79.39 79.28 81.10
4/15/2015 12:00 to 11:10 80.97 81.20 80.00 79.94 79.84 80.48
4/15/2015 11:00 to 10:10 82.81 83.12 82.91 82.81 84.01 84.32
4/15/2015 10:00 to 9:10 84.09 83.43 82.36 82.01 80.87 79.65
4/15/2015 09:00 to 8:10 79.51 79.51 79.98 81.45 82.15 82.75
4/15/2015 08:00 to 7:10 83.28 83.76 83.96 84.29 83.99 83.94
4/15/2015 07:00 to 6:10 83.84 82.81 82.31 82.21 82.52 82.25
4/15/2015 06:00 to 5:10 81.98 81.43 83.16 84.83 86.01 86.32
4/15/2015 05:00 to 4:10 85.08 83.41 82.46 81.41 81.53 81.84
4/15/2015 04:00 to 3:10 80.85 83.88 86.09 86.93 88.07 88.58
4/15/2015 03:00 to 2:10 88.73 88.65 88.77 88.87 88.07 85.04
4/15/2015 02:00 to 1:10 80.36 80.09 79.30 78.73 78.17 77.74
4/15/2015 01:00 to 0:10 77.18 77.72 77.82 77.14 77.18 76.40
4/15/2015 00:00 to 23:10 74.27 75.63 74.77 75.05 74.68 74.15
4/14/2015 23:00 to 22:10 73.86 74.68 74.50 73.49 73.45 73.34
4/14/2015 22:00 to 21:10 74.02 74.60 73.69 74.21 75.10 76.13
4/14/2015 21:00 to 20:10 76.62 76.27 76.54 77.57 79.10 79.28
4/14/2015 20:00 to 19:10 81.14 80.97 80.97 81.47 82.58 83.20
4/14/2015 19:00 to 18:10 82.87 85.08 86.30 87.02 86.79 86.01
4/14/2015 18:00 to 17:10 85.68 85.86 86.96 87.12 84.98 83.53
4/14/2015 17:00 to 16:10 82.62 82.15 82.01 80.71 80.91 81.28
4/14/2015 16:00 to 15:10 81.59 81.76 82.17 82.29 82.34 82.58
4/14/2015 15:00 to 14:10 83.22 83.82 84.87 84.91 84.79 84.32
4/14/2015 14:00 to 13:10 84.27 85.02 85.84 86.73 87.59 88.61
4/14/2015 13:00 to 12:10 88.07 86.63 85.84 83.47 83.06 83.63
4/14/2015 12:00 to 11:10 83.74 84.62 85.14 84.58 85.31 84.67
4/14/2015 11:00 to 10:10 -- -- -- -- -- --
4/14/2015 10:00 to 9:10 79.43 79.45 79.28 79.04 78.48 78.60
4/14/2015 09:00 to 8:10 79.04 78.77 78.38 78.73 79.06 78.89
4/14/2015 08:00 to 7:10 79.06 79.61 79.53 79.04 79.30 79.20
4/14/2015 07:00 to 6:10 79.22 78.81 79.12 79.39 79.39 79.22
4/14/2015 06:00 to 5:10 79.32 79.30 79.63 79.45 79.22 79.53
4/14/2015 05:00 to 4:10 79.53 79.80 79.67 79.34 79.45 79.51
4/14/2015 04:00 to 3:10 79.18 80.09 80.00 79.30 79.14 79.43
4/14/2015 03:00 to 2:10 79.80 79.96 79.72 79.51 78.46 78.77
4/14/2015 02:00 to 1:10 78.58 78.87 79.32 79.04 78.35 77.90
4/14/2015 01:00 to 0:10 77.36 76.09 75.45 75.20 75.20 74.19
4/14/2015 00:00 to 23:10 75.01 74.77 75.45 75.12 76.42 77.74
4/13/2015 23:00 to 22:10 79.49 78.60 78.46 79.30 79.53 80.44
4/13/2015 22:00 to 21:10 80.64 79.63 79.59 79.55 79.70 79.90
4/13/2015 21:00 to 20:10 79.82 79.67 80.89 81.59 81.74 81.45
4/13/2015 20:00 to 19:10 81.94 82.34 82.64 82.44 82.56 83.18
4/13/2015 19:00 to 18:10 84.93 85.80 84.56 82.79 78.50 78.87
4/13/2015 18:00 to 17:10 78.79 78.97 78.75 78.71 78.77 78.54
4/13/2015 17:00 to 16:10 78.19 78.60 78.71 78.54 78.05 78.95
4/13/2015 16:00 to 15:10 78.44 78.48 77.90 78.09 78.25 77.98
4/13/2015 15:00 to 14:10 78.07 76.60 75.69 75.41 75.55 77.43
4/13/2015 14:00 to 13:10 78.81 79.49 79.39 80.27 81.14 80.87
4/13/2015 13:00 to 12:10 81.43 81.82 81.88 81.35 81.30 81.24
4/13/2015 12:00 to 11:10 80.99 80.83 80.99 80.97 80.64 80.33
4/13/2015 11:00 to 10:10 80.85 81.06 80.50 80.27 80.13 79.43
4/13/2015 10:00 to 9:10 78.77 79.82 80.60 80.99 81.12 81.51
4/13/2015 09:00 to 8:10 81.51 82.03 82.01 82.17 80.64 79.98
4/13/2015 08:00 to 7:10 79.63 79.63 79.84 80.21 80.42 80.42
4/13/2015 07:00 to 6:10 81.20 80.15 80.17 80.19 80.54 80.17
4/13/2015 06:00 to 5:10 80.85 81.02 80.99 80.89 80.66 80.52
4/13/2015 05:00 to 4:10 80.71 80.56 80.05 80.11 81.16 81.14
4/13/2015 04:00 to 3:10 80.85 81.41 80.89 80.09 80.33 80.03
4/13/2015 03:00 to 2:10 80.21 79.84 80.79 80.00 80.52 80.89
4/13/2015 02:00 to 1:10 80.77 80.46 79.59 79.20 78.89 78.15
4/13/2015 01:00 to 0:10 77.96 78.09 77.03 77.63 76.79 77.12
4/13/2015 00:00 to 23:10 77.14 76.87 78.09 79.20 80.11 80.62
4/12/2015 23:00 to 22:10 80.52 82.13 81.28 81.53 78.81 77.65
4/12/2015 22:00 to 21:10 77.98 78.77 78.33 78.40 78.62 78.40
4/12/2015 21:00 to 20:10 78.75 79.30 78.91 79.24 79.84 79.94
4/12/2015 20:00 to 19:10 79.96 79.98 79.86 79.82 80.11 80.52
4/12/2015 19:00 to 18:10 80.52 80.95 81.32 81.32 81.32 80.44
4/12/2015 18:00 to 17:10 80.50 80.11 80.54 81.14 81.24 81.47
4/12/2015 17:00 to 16:10 81.65 81.72 81.78 81.51 81.55 81.84
4/12/2015 16:00 to 15:10 81.88 81.84 82.13 82.48 82.69 83.10
4/12/2015 15:00 to 14:10 83.22 83.35 83.28 83.02 83.28 83.99
4/12/2015 14:00 to 13:10 84.77 85.47 85.82 86.48 86.58 86.75
4/12/2015 13:00 to 12:10 86.93 87.12 86.98 86.96 87.18 87.47
4/12/2015 12:00 to 11:10 87.66 88.01 88.15 88.21 88.36 88.40
4/12/2015 11:00 to 10:10 88.79 88.73 88.98 89.08 88.61 88.28
4/12/2015 10:00 to 9:10 88.75 89.10 89.45 89.33 88.30 88.13
4/12/2015 09:00 to 8:10 88.21 88.13 87.80 87.95 88.03 87.22
4/12/2015 08:00 to 7:10 87.16 87.06 86.65 86.65 87.55 87.78
4/12/2015 07:00 to 6:10 87.47 86.79 86.73 86.63 86.40 85.61
4/12/2015 06:00 to 5:10 85.86 86.11 86.09 86.56 86.73 87.06
4/12/2015 05:00 to 4:10 87.64 87.99 88.54 88.19 87.57 86.96
4/12/2015 04:00 to 3:10 87.62 88.05 87.95 87.64 87.14 86.87
4/12/2015 03:00 to 2:10 86.44 85.00 85.64 85.70 86.13 86.83
4/12/2015 02:00 to 1:10 86.03 85.00 85.10 86.01 86.52 86.50
4/12/2015 01:00 to 0:10 86.52 86.67 86.83 86.96 86.79 85.39